Regional Weather Roundup
Issued by NWS

Home | Current Version | Previous Version | Graphics & Text | Print | Product List | Glossary On
Versions: 1 2 3 4 5 6 7 8 9 10 11 12 13 14 15 16 17 18 19 20 21 22 23 24 25 26 27
000
ASUS45 KBOI 280310
RWRID

IDAHO REGIONAL WEATHER ROUNDUP
NATIONAL WEATHER SERVICE BOISE ID
900 PM MDT TUE SEP 27 2016

NOTE: "FAIR" INDICATES FEW OR NO CLOUDS BELOW 12000 FEET
WITH NO SIGNIFICANT WEATHER AND/OR OBSTRUCTIONS TO VISIBILITY

IDZ012-014-280400-
SOUTHWEST IDAHO


CITY           SKY/WX    TMP DP  RH WIND       PRES   REMARKS
BOISE          CLEAR     71  46  40 SW3       29.99S
CALDWELL       CLEAR     70  49  47 SW3       29.98R
MOUNTAIN HOME  CLEAR     69  45  42 CALM      30.00R
$$

IDZ016-017-280400-
SOUTHCENTRAL IDAHO


CITY           SKY/WX    TMP DP  RH WIND       PRES   REMARKS
BURLEY         CLEAR     60  50  69 N3        30.08S
JEROME         CLEAR     66  41  40 NE12      30.09R
TWIN FALLS     CLEAR     58  47  66 E8        30.09S
$$

IDZ019>023-280400-
SOUTHEAST IDAHO


CITY           SKY/WX    TMP DP  RH WIND       PRES   REMARKS
IDAHO FALLS    CLEAR     57  44  62 CALM      30.16R
POCATELLO      CLEAR     60  48  64 E6        30.14R
REXBURG        CLEAR     59  49  69 CALM      30.16R
$$

IDZ006-010-011-018-031-032-280400-
CENTRAL IDAHO MOUNTAINS


CITY           SKY/WX    TMP DP  RH WIND       PRES   REMARKS
MCCALL         CLEAR     59  41  51 NE5       30.13S
HAILEY         CLEAR     55  43  62 W6        30.20R
STANLEY          N/A     55  36  48 S5        30.24R
SALMON         CLEAR     57  45  62 CALM      30.07R
CHALLIS        CLEAR     62  35  36 W5        30.13R
$$

IDZ002-004-006-007-026-280400-
NORTHERN IDAHO


CITY           SKY/WX    TMP DP  RH WIND       PRES   REMARKS
LEWISTON       CLEAR     73  46  38 S5        29.98R
LOWELL           N/A     61  54  77 N5        30.00R
COEUR D`ALENE  CLEAR     63  46  54 E5        30.03R
MULLAN PASS    CLEAR     57  41  55 W3        30.21R
$$




USA.gov is the U.S. government's official web portal to all federal, state and local government web resources and services.